This is the latest recevied weather packets stored in our database for station/object K5BOU. If no packets are shown the sender has not sent any weather packets the latest 10 day(s).
| Time | Temp. | Humidity | Pressure | Rain* | Wind** | Luminosity | Snow |
|---|---|---|---|---|---|---|---|
| 1788572308 | 29.44° C | 86% | 1011.1 hPa | 0 mm | - | 0 W/m² | - |
| 1788572004 | 29.44° C | 86% | 1011.1 hPa | 0 mm | - | 0 W/m² | - |
| 1788571699 | 30° C | 85% | 1010.9 hPa | 0 mm | - | 0 W/m² | - |
| 1788571395 | 30° C | 85% | 1010.9 hPa | 0 mm | - | 0 W/m² | - |
| 1788571091 | 30° C | 84% | 1011 hPa | 0 mm | - | 0 W/m² | - |
| 1788570786 | 30° C | 84% | 1010.8 hPa | 0 mm | - | 0 W/m² | - |
| 1788570481 | 30° C | 83% | 1010.8 hPa | 0 mm | - | 0 W/m² | - |
| 1788570176 | 30.56° C | 83% | 1010.8 hPa | 0 mm | - | 0 W/m² | - |
| 1788569873 | 30.56° C | 82% | 1010.7 hPa | 0 mm | - | 0 W/m² | - |
| 1788569573 | 30.56° C | 82% | 1010.7 hPa | 0 mm | - | 0 W/m² | - |
| 1788569273 | 30.56° C | 81% | 1010.8 hPa | 0 mm | - | 0 W/m² | - |
| 1788568968 | 30.56° C | 80% | 1010.9 hPa | 0 mm | - | 3 W/m² | - |
| 1788568663 | 30.56° C | 79% | 1010.6 hPa | 0 mm | - | 4 W/m² | - |
| 1788568359 | 31.11° C | 78% | 1010.7 hPa | 0 mm | - | 9 W/m² | - |
| 1788568054 | 31.11° C | 78% | 1010.6 hPa | 0 mm | - | 15 W/m² | - |
| 1788567754 | 31.67° C | 77% | 1010.5 hPa | 0 mm | - | 18 W/m² | - |
| 1788567449 | 31.67° C | 77% | 1010.3 hPa | 0 mm | - | 21 W/m² | - |
| 1788567148 | 31.67° C | 77% | 1010.5 hPa | 0 mm | - | 21 W/m² | - |
| 1788566844 | 31.67° C | 77% | 1010.3 hPa | 0 mm | - | 24 W/m² | - |
| 1788566539 | 32.22° C | 76% | 1010.2 hPa | 0 mm | - | 29 W/m² | - |
| 1788566234 | 32.22° C | 75% | 1010.2 hPa | 0 mm | - | 34 W/m² | - |
| 1788565929 | 32.22° C | 75% | 1010 hPa | 0 mm | - | 39 W/m² | - |
| 1788565623 | 32.22° C | 75% | 1010.2 hPa | 0 mm | - | 47 W/m² | - |
| 1788565319 | 32.22° C | 75% | 1010.3 hPa | 0 mm | - | 72 W/m² | - |
| 1788565014 | 32.22° C | 75% | 1010.1 hPa | 0 mm | - | 83 W/m² | - |
* Rain latest hour (hover to see other rain measurements)
** Current wind speed in m/s (hover to see current wind gust speed)